Location: Six Mile Lake
(44.9000°N, 79.7170°W)
Time: 21:33:41
(UTC-04:00)

ESTCUBE 1 - Visible Passes

Search period start: 29 June 2022 00:00
Search period end: 09 July 2022 00:00
Orbit: 644 x 659 km, 97.9° (Epoch: 29 June)

Date Brightness Start Highest point End Pass type
(mag) Time Alt. Az. Time Alt. Az. Time Alt. Az.
29 Jun ? 00:21:58 19° SW 00:23:43 24° W 00:27:20 10° NW visible
29 Jun ? 23:11:28 27° SSE 23:13:46 67° ENE 23:18:13 10° N visible
30 Jun ? 00:49:17 11° WSW 00:50:59 13° W 00:53:02 10° WNW visible
30 Jun ? 22:02:01 10° E 22:04:32 15° ENE 22:07:05 10° NNE visible
30 Jun ? 23:38:47 32° S 23:40:46 65° WSW 23:45:13 10° NNW visible
01 Jul ? 22:28:16 13° ESE 22:31:16 26° ENE 22:34:57 10° N visible
02 Jul ? 00:06:06 25° SW 00:07:52 34° W 00:11:57 10° NNW visible
02 Jul ? 22:55:35 22° SE 22:58:05 46° ENE 23:02:22 10° N visible
03 Jul ? 00:33:25 15° WSW 00:35:05 19° W 00:38:13 10° NW visible
03 Jul ? 21:47:53 10° ENE 21:49:01 11° ENE 21:50:09 10° NE visible
03 Jul ? 23:22:54 31° SSE 23:25:00 87° E 23:29:31 10° NNW visible
04 Jul ? 22:12:33 10° ESE 22:15:40 19° ENE 22:18:48 10° NNE visible
04 Jul ? 23:50:13 30° SSW 23:52:03 49° W 23:56:25 10° NNW visible
05 Jul ? 22:39:43 17° ESE 22:42:25 33° ENE 22:46:25 10° N visible
06 Jul ? 00:17:32 21° SW 00:19:12 26° W 00:22:58 10° NW visible
06 Jul ? 23:07:02 27° SE 23:09:17 61° ENE 23:13:43 10° N visible
07 Jul ? 00:44:51 12° WSW 00:46:27 14° W 00:48:53 10° WNW visible
07 Jul ? 21:57:49 10° E 22:00:06 14° ENE 22:02:22 10° NNE visible
07 Jul ? 23:34:21 34° S 23:36:15 72° WSW 23:40:44 10° NNW visible
08 Jul ? 22:23:50 13° ESE 22:26:47 24° ENE 22:30:21 10° NNE visible
